SCP
0 0 0 0 0 0 0 0 0 0 0 0 0 0 0 0 0 0 0 0 0 0 0 0 0 0 0 0 0 0 0 0 0 0 0 0 0 0 0 0 0 -0 -0 -0 -0 -0 -0 -0 -0
0 0 0 0 0 0 0 0 0 0 0 0 0 0 0 0 0 0 0 0 0 0 0 0 0 0 0 0 0 0 0 0 0 0 0 0 0 0 0 0 0 -0 -0 -0 -0 -0 -0 0 -0
0 0 0 0 0 0 0 0 0 0 0 0 0 0 0 0 0 0 0 0 0 0 0 0 0 0 0 0 0 0 0 0 0 0 0 0 0 0 0 0 0 0 0 -0 -0 -0 0 0 0
0 0 0 0 0 0 0 0 0 0 0 0 0 0 0 0 0 0 0 0 0 0 0 0 0 0 0 0 0 0 0 0 0 0 0 0 0 0 0 0 0 0 0 0 0 0 0 0 0
0 0 0 0 0 0 0 0 0 0 0 0 0 0 0 0 0 0 0 0 0 0 0 0 0 0 0 0 0 0 0 0 0 0 0 0 0 0 0 0 0 0 0 0 0 0 0 0 0
0 0 0 0 0 0 0 0 0 0 0 0 0 0 0 0 0 0 0 0 0 0 0 0 0 0 0 0 0 0 0 0 0 0 0 0 0 0 0 0 0 0 0 0 0 0 -0 0 0
0 0 0 0 0 0 0 0 0 0 0 0 0 0 0 0 0 0 0 0 0 0 0 0 0 0 0 0 0 0 0 0 0 0 0 0 0 0 0 0 0 0 -0 -0 -0 -0 -0 -0 -0
0 0 0 0 0 0 0 0 0 0 0 0 0 0 0 0 0 0 0 0 0 0 0 0 0 0 0 0 0 0 0 0 0 0 0 0 0 -0 -0 -0 -0 -0 -0 -0 -0 -0 -0 -0 -0
0 0 0 0 0 0 0 0 0 0 0 0 0 0 0 0 0 0 0 0 0 0 0 0 0 0 0 0 0 0 0 0 0 0 0 0 -0 -0 -0 -0 0 0 -0 -0 -0 -0 -0 -0 0
0 0 0 0 0 0 0 0 0 0 0 0 0 0 0 0 0 0 0 0 0 0 0 0 0 0 0 0 0 0 0 0 0 0 0 -0 -0 -0 -0 0 0 0 0 0 0 0 0 0 0
0 0 0 0 0 0 0 0 0 0 0 0 0 0 0 0 0 0 0 0 0 0 0 0 0 0 0 0 0 0 0 0 0 0 -0 -0 -0 -0 -0 0 0 0 0 0 0 0 0 0 -0
0 0 0 0 0 0 0 0 0 0 0 0 0 0 0 0 0 0 0 0 0 0 0 0 0 0 0 0 0 0 0 0 0 -0 -0 -0 -0 -0 -0 0 0 0 0 0 0 0 0 0 0
0 0 0 0 0 0 0 0 0 0 0 0 0 0 0 0 0 0 0 0 0 1 1 0 0 0 0 0 0 0 0 0 0 -0 -0 -0 -0 -0 -0 0 0 0 0 0 0 0 0 0 0
0 0 0 0 0 0 0 0 0 0 0 0 0 0 0 0 0 0 0 1 1 1 1 1 1 1 0 0 0 0 0 0 0 0 -0 -0 -0 -0 0 0 0 0 0 0 0 0 0 0 0
0 0 0 0 0 0 0 0 0 0 0 0 0 0 0 0 0 0 1 1 1 1 1 1 1 1 1 0 0 0 0 0 0 0 0 0 0 0 0 0 0 0 0 0 0 0 0 0 0
0 0 0 0 0 0 0 0 0 0 0 0 0 0 0 0 0 1 1 1 1 1 1 1 1 1 1 0 0 0 0 0 0 0 0 0 0 0 0 0 0 0 0 0 0 0 0 0 0
0 0 0 0 0 0 0 0 0 0 0 0 0 0 0 0 1 1 1 1 1 1 1 1 1 1 1 1 0 0 0 0 0 0 0 0 0 0 0 0 0 0 0 0 0 0 0 0 0
0 0 0 0 0 0 0 0 0 0 0 0 0 0 0 1 1 1 1 1 1 1 1 1 1 1 1 1 1 0 0 0 0 0 0 0 0 0 0 0 0 0 0 0 0 0 0 0 0
-0 -0 0 0 0 0 0 0 0 0 0 0 0 0 0 1 1 1 1 1 1 1 1 1 1 1 1 1 1 1 0 0 0 0 0 0 0 0 0 0 0 0 0 0 0 0 0 0 0
-0 -0 -0 0 0 0 0 0 0 0 0 0 0 0 1 1 1 1 1 1 1 1 1 1 1 1 1 1 1 1 1 1 1 1 1 1 1 1 0 0 0 0 0 0 0 0 0 0 0
-0 -0 -0 -0 0 0 0 0 0 0 0 0 0 0 1 1 1 2 2 1 1 1 1 1 1 1 1 1 1 1 1 1 1 1 1 1 1 1 1 1 1 1 1 1 0 0 0 0 0
-0 -0 -0 -0 0 0 0 0 0 0 0 0 0 0 1 1 1 2 2 1 1 1 1 1 1 1 1 1 1 1 1 1 1 1 1 1 1 1 1 1 1 1 1 1 1 0 0 0 0
-0 -0 -0 -0 0 0 0 0 0 0 0 0 0 0 0 1 1 1 1 1 1 1 1 1 1 1 1 1 1 1 1 1 1 1 1 1 1 1 1 1 1 1 1 1 1 1 1 0 0
-0 -0 -0 -0 -0 0 0 0 0 0 0 0 0 0 0 1 1 1 1 1 1 1 1 1 2 2 2 2 1 1 1 1 1 1 1 1 1 1 1 1 1 1 1 1 1 1 1 0 0
-0 -0 -0 -0 -0 0 0 0 0 0 0 0 0 0 0 1 1 1 1 1 1 1 1 1 2 2 2 2 2 1 1 1 1 1 1 1 1 1 1 1 1 1 1 1 1 1 1 1 0
-0 -0 -0 0 0 0 0 0 0 0 0 0 0 0 0 1 1 1 1 1 1 1 1 2 2 2 2 2 2 2 1 1 1 1 1 1 1 1 1 1 1 1 1 1 1 1 1 1 1
-0 -0 -0 0 0 0 0 0 0 0 0 0 0 0 0 1 1 1 1 1 1 1 2 2 2 2 2 2 2 2 2 1 1 1 1 1 1 1 1 1 1 1 1 1 1 1 1 1 1
-0 -0 0 0 0 0 0 0 0 0 0 0 0 0 0 1 1 1 1 1 1 1 1 2 2 2 2 2 2 2 1 1 1 1 1 1 1 1 1 1 1 1 1 1 1 1 1 1 1
0 0 0 0 0 0 0 0 0 0 0 0 0 0 1 1 1 1 1 1 1 1 1 1 2 2 2 1 1 1 1 1 1 1 1 1 1 1 1 1 1 1 1 1 1 1 1 1 1
0 0 0 0 0 0 0 0 0 0 0 0 0 1 1 1 1 1 1 1 1 1 1 1 1 1 1 1 1 1 1 1 1 1 1 1 1 1 1 1 1 1 1 1 1 1 1 1 1
Wind_Speed
8 11 10 8 7 4 2 6 9 11 11 11 11 11 14 14 11 10 10 13 18 17 15 14 12 11 10 9 8 8 8 7 7 7 8 8 8 8 8 9 8 8 8 8 7 7 5 6 6
9 12 10 7 6 2 4 8 10 11 10 8 10 12 14 14 13 12 12 13 16 16 13 13 13 11 10 9 8 8 7 7 7 7 7 7 8 8 8 8 8 7 7 7 6 6 5 6 7
11 15 9 6 4 2 6 7 8 9 8 7 10 12 11 10 12 11 12 14 15 15 14 14 13 11 10 9 8 7 7 7 7 7 7 7 7 7 7 7 7 6 6 6 6 6 7 8 8
8 8 7 6 1 4 5 6 6 8 7 7 8 10 11 10 11 13 14 14 14 15 14 14 14 11 10 9 8 7 7 7 7 6 6 6 6 6 7 6 6 6 6 6 7 7 8 8 7
9 7 7 6 1 4 4 5 5 6 7 8 10 12 12 13 15 15 14 13 13 15 14 14 14 12 10 9 8 7 6 6 6 6 5 5 5 5 5 5 5 5 5 6 6 6 6 7 6
7 5 6 5 1 2 4 4 4 5 7 7 10 13 10 12 13 13 13 12 13 15 15 13 13 12 11 9 8 7 6 6 6 5 4 3 3 3 3 3 4 4 4 5 5 5 6 5 4
9 7 8 7 2 2 4 4 3 4 5 6 9 11 10 12 12 12 11 11 13 15 14 13 12 11 11 10 9 8 7 6 5 4 3 2 2 2 2 2 3 3 4 4 4 4 4 4 3
9 7 10 8 3 2 5 4 4 3 5 5 5 8 11 13 11 11 11 11 11 12 13 13 12 11 10 9 10 9 8 7 5 4 3 3 3 3 3 2 3 4 4 4 4 4 4 3 3
12 8 8 7 3 2 4 3 3 3 3 4 6 11 15 15 13 12 10 10 9 9 10 11 11 10 9 9 9 9 8 7 6 5 5 4 2 2 3 2 5 6 6 5 5 5 4 4 4
9 8 8 6 3 1 3 2 2 2 3 5 10 14 16 15 13 12 11 10 10 8 8 8 9 8 8 6 6 6 6 5 4 2 2 2 1 1 2 4 6 6 6 5 6 6 5 4 3
10 10 7 4 2 2 0 1 2 2 2 5 10 13 14 13 12 11 10 9 9 8 7 7 6 5 6 5 4 3 3 3 3 2 1 1 1 1 2 1 3 3 4 3 4 4 3 2 1
11 9 7 5 2 3 2 2 2 1 2 5 9 11 13 12 11 10 10 9 9 8 8 7 7 5 4 3 2 2 2 2 2 2 1 1 1 1 1 1 1 1 1 1 1 1 1 1 1
11 10 8 6 4 4 3 4 2 1 4 7 9 9 12 11 9 8 8 9 9 7 7 7 7 6 4 3 1 2 2 2 2 2 1 1 1 1 1 1 1 1 1 1 0 1 1 1 1
10 10 9 7 7 6 6 5 5 3 5 7 9 9 10 10 10 9 8 8 8 7 7 6 7 6 4 2 1 1 2 2 2 2 2 1 1 1 1 1 1 1 1 1 1 1 1 1 1
11 11 11 10 9 7 6 7 7 7 8 9 9 9 8 7 9 9 8 8 8 7 7 6 7 7 4 3 1 1 1 2 1 2 3 2 1 1 0 1 1 1 0 1 1 1 0 1 1
12 13 12 11 11 9 9 8 6 8 9 8 8 9 9 8 8 8 9 9 8 8 7 6 6 7 5 3 1 0 1 2 1 2 2 2 1 1 0 0 1 0 0 0 1 1 1 1 1
12 13 13 12 11 9 9 8 7 8 8 8 8 8 9 10 9 8 9 9 9 8 7 6 5 6 5 4 2 1 1 1 1 2 1 1 1 0 1 0 0 0 0 1 1 1 1 1 1
11 13 12 11 10 10 9 9 8 9 8 8 9 8 8 9 9 9 9 10 9 8 7 6 5 5 5 4 2 1 1 1 1 2 2 2 1 0 0 1 0 0 1 1 1 1 0 1 1
15 14 11 9 8 8 9 8 7 8 9 9 9 8 8 8 9 10 10 10 10 9 8 7 6 5 4 3 3 2 2 2 2 2 2 2 1 1 1 0 0 1 1 1 1 0 0 0 1
16 15 13 10 9 7 8 9 9 10 9 8 8 8 9 9 9 10 10 10 10 9 9 8 7 6 5 3 2 2 2 2 2 2 2 2 2 1 1 0 0 1 1 1 0 0 0 0 1
15 13 13 11 8 9 9 10 11 11 9 9 8 8 8 9 10 10 11 11 11 11 9 8 7 7 6 5 3 2 2 1 2 2 2 2 2 2 1 1 1 1 1 1 1 0 0 1 1
13 12 13 13 12 9 10 10 10 9 9 9 8 7 7 8 10 11 11 11 11 11 10 8 8 7 6 5 4 4 3 2 2 2 2 2 2 2 1 1 1 1 0 1 1 1 1 1 1
13 11 12 13 13 12 11 11 9 10 10 9 8 7 6 7 9 8 10 11 10 10 11 9 8 7 6 5 4 3 3 2 2 2 2 2 2 2 1 1 1 1 1 1 0 0 0 1 1
11 12 13 13 11 13 13 12 9 7 9 8 8 7 6 6 7 7 9 9 9 10 10 10 9 7 6 6 5 4 3 2 2 2 2 2 2 2 2 2 2 2 1 1 1 1 1 1 1
11 10 8 9 10 12 12 12 6 4 4 7 7 7 7 6 7 7 8 8 9 9 9 9 9 8 7 6 5 4 3 3 3 2 2 2 1 1 1 1 1 1 2 2 2 1 1 1 1
12 13 10 9 9 8 11 10 5 5 4 5 7 7 7 6 7 7 6 7 6 7 8 8 8 8 7 6 5 4 4 3 2 2 1 1 1 1 2 2 1 2 2 2 2 1 1 1 1
14 13 14 13 13 11 8 7 7 7 6 5 7 7 7 7 7 8 7 6 6 6 6 7 7 6 6 6 6 5 4 3 2 2 1 1 1 1 2 2 1 1 1 1 2 1 2 1 2
16 13 9 11 10 11 8 7 5 9 8 6 5 6 7 7 8 7 6 6 6 6 6 6 6 6 5 5 5 5 4 3 2 2 2 1 1 1 1 1 1 1 1 2 2 2 2 2 2
13 14 11 9 9 10 8 3 0 6 6 6 5 5 6 8 8 7 6 6 6 6 7 6 6 5 4 4 4 3 3 3 3 2 2 2 1 1 1 1 1 1 1 1 1 2 2 2 1
12 13 12 9 9 10 9 3 3 2 5 5 5 5 6 7 7 8 7 6 5 6 6 5 5 5 4 4 3 3 3 3 3 2 2 2 1 1 1 1 1 1 0 0 1 1 1 1 1
Wind_Direction
237 239 235 251 250 252 40 54 62 69 65 58 49 56 60 52 60 88 108 105 109 114 119 118 116 113 109 104 97 90 82 77 72 68 64 61 60 62 65 67 68 68 70 72 73 79 89 114 118
261 253 243 247 264 290 58 58 60 65 71 75 68 66 71 69 82 102 106 108 112 117 121 117 120 116 113 108 102 95 88 81 75 72 70 66 64 63 67 69 70 69 69 71 71 75 87 113 118
261 261 263 252 257 20 64 67 74 80 76 72 74 67 64 80 90 103 115 116 112 116 117 120 124 121 117 113 108 101 94 87 81 77 74 70 66 63 63 67 70 70 69 69 68 71 81 106 113
261 248 241 260 294 65 75 91 96 97 84 71 75 81 75 75 97 113 124 123 125 125 122 126 129 127 124 119 114 108 100 92 85 80 75 72 69 65 61 62 68 70 70 70 72 78 86 100 111
245 267 268 276 338 71 75 76 78 88 88 81 88 91 86 89 105 120 129 131 131 123 123 130 135 134 132 127 123 117 110 102 94 87 81 77 74 69 62 60 67 72 75 79 79 84 94 104 110
249 254 270 267 281 88 82 75 77 78 92 97 104 103 100 114 119 131 134 135 126 123 123 130 140 141 141 138 134 131 125 117 110 104 94 90 87 86 80 70 73 81 90 91 90 90 104 110 117
259 273 271 275 263 109 83 67 65 82 91 93 105 111 122 127 129 137 136 130 127 127 131 141 145 148 149 147 145 144 140 134 131 131 133 135 137 128 116 105 98 103 107 109 107 112 121 130 147
262 271 276 275 267 96 89 84 62 52 72 87 104 120 135 133 143 139 135 129 130 133 139 145 151 153 158 156 156 157 155 154 158 166 179 188 191 175 162 144 135 144 137 130 130 140 153 161 180
258 261 275 278 286 104 112 113 102 100 101 90 78 101 128 139 147 143 141 139 136 136 143 148 150 156 161 156 157 166 170 171 176 190 206 207 209 189 163 122 134 146 150 150 153 163 176 189 208
242 248 257 271 319 55 131 129 140 159 149 128 107 114 131 146 151 153 153 150 145 147 146 142 145 150 152 149 150 168 172 167 183 178 189 199 198 100 100 124 138 151 161 168 176 181 194 211 207
242 252 265 269 303 353 313 171 200 206 156 135 131 137 143 152 159 160 156 152 147 148 144 137 131 134 135 133 152 158 157 153 177 157 172 162 113 93 95 127 147 165 174 179 179 189 201 194 143
245 253 265 277 321 284 264 272 251 169 131 119 134 143 151 163 169 163 159 155 150 151 147 137 132 119 105 111 134 143 140 143 140 123 96 66 68 60 96 93 76 154 144 139 187 183 136 107 67
250 252 255 258 264 264 260 249 257 123 113 120 127 150 163 170 162 162 160 147 142 145 143 139 130 118 105 106 138 130 126 138 127 111 95 44 73 32 26 97 80 78 98 105 70 82 103 124 173
261 259 258 253 240 230 234 237 231 189 154 143 146 166 174 168 163 162 159 147 147 147 145 138 132 125 123 128 151 139 143 132 120 114 111 86 69 54 350 48 65 51 81 106 111 112 129 119 90
266 263 250 241 236 225 224 235 224 201 180 165 163 167 161 168 167 165 154 145 145 145 138 136 142 133 135 146 185 156 141 118 105 115 122 120 103 66 357 28 64 44 25 100 113 122 129 135 112
251 252 248 238 226 219 224 235 212 194 188 177 176 173 162 174 178 165 154 145 146 146 138 145 150 135 139 145 159 153 81 102 107 110 110 106 115 112 63 64 49 3 88 112 148 126 100 81 67
245 241 241 236 220 215 215 231 213 203 198 188 184 179 171 172 176 162 155 150 146 141 139 142 135 137 149 154 156 155 121 117 127 113 110 116 123 110 120 94 19 256 73 60 63 85 114 129 118
243 241 234 236 216 211 215 226 219 209 199 201 192 183 179 174 169 157 152 151 146 139 137 140 139 142 151 152 157 164 145 153 129 119 117 121 135 142 131 160 140 309 69 51 51 52 102 177 185
261 266 262 241 220 218 224 232 235 226 205 208 196 184 180 183 168 156 155 153 149 145 146 150 155 151 152 157 169 174 168 172 148 139 131 143 153 138 120 293 171 129 110 110 76 69 336 140 131
257 263 268 262 239 226 224 233 234 239 217 210 195 189 185 181 164 155 157 157 155 155 156 158 161 156 162 164 173 176 172 176 157 143 145 159 164 170 157 218 196 147 145 125 93 190 91 281 152
250 258 266 266 258 242 239 240 236 233 221 203 198 196 187 178 172 165 165 164 163 163 165 167 164 161 172 171 172 168 167 181 156 154 159 175 174 164 166 170 209 169 173 163 196 234 198 239 265
248 252 262 267 265 251 240 245 233 220 211 203 190 187 181 178 172 174 170 166 167 167 166 162 160 166 170 171 177 179 178 178 165 162 154 167 182 177 188 181 160 163 173 179 215 140 262 236 258
254 258 259 259 261 263 250 248 236 213 204 201 185 183 175 177 173 172 173 168 168 166 166 163 163 166 167 176 177 183 190 181 159 163 153 175 184 179 179 172 169 178 199 205 176 167 275 287 301
254 260 260 254 253 251 249 251 241 219 204 185 170 167 159 165 162 167 168 161 168 167 163 163 162 165 168 173 180 184 189 184 171 186 173 182 170 165 175 176 186 181 201 211 200 235 218 250 284
238 246 248 240 235 240 236 241 234 211 193 170 160 157 156 159 158 156 158 160 166 165 160 160 159 163 166 170 179 180 189 197 205 201 187 180 164 154 161 179 173 188 204 200 185 196 224 247 268
229 234 239 246 246 245 233 231 212 165 157 150 151 148 148 158 145 141 156 156 156 154 148 148 154 160 167 170 173 180 192 204 207 210 194 177 162 143 145 160 172 198 211 203 184 199 210 223 240
234 236 242 253 263 262 241 212 183 171 166 160 151 150 154 151 138 137 147 149 142 141 135 146 149 156 167 172 172 180 190 193 187 181 185 166 156 146 139 153 172 198 217 215 194 195 211 222 229
241 244 249 252 261 266 257 235 204 173 168 167 158 152 150 138 136 135 133 129 134 132 131 130 141 151 161 171 181 177 178 180 182 169 152 142 126 83 104 150 179 197 223 237 209 204 208 205 219
229 238 245 257 261 263 264 247 316 150 153 157 159 151 145 138 137 135 134 130 130 132 135 134 138 150 159 168 170 163 162 163 161 166 155 138 135 134 149 177 201 216 222 214 205 206 199 201 212
234 238 237 241 252 265 272 262 26 86 133 140 137 130 124 128 129 130 129 134 132 132 134 138 147 155 159 157 149 149 144 151 158 159 149 143 151 170 194 208 213 215 216 229 204 218 193 184 198